sat.trackr.live / text

‹ back to catalog

2026-106E

NORAD 69101 · 2026-106E

PAYLOAD ACTIVE UNKNOWN

§ Identity

Operator
Country
PRC
Launch date
2026-05-15
Launch site
JSC
Launch vehicle
Mass (kg)
RCS (m²)

External: N2YO · Heavens-Above · Gunter

§ Orbital elements

Epoch: 2026-05-15T19:53:53.337984Z

Period
95.29 min
Inclination
97.5067°
Eccentricity
0.0013929
Mean motion
15.11230034 rev/d
Perigee alt
522.8 km
Apogee alt
542.1 km
Semi-major
6,910.6 km
B*
3.3338e-5
RAAN
218.5063°
Arg perigee
282.6221°
Mean anomaly
77.3451°
Rev number
10

§ Raw data

2026-106E1 69101U 26106E   26135.82908956  .00000497  00000+0  33338-4 0  99992 69101  97.5067 218.5063 0013929 282.6221  77.3451 15.11230034   103

JSON: /api/v1/satellites/69101 · /tle

For live sub-satellite position, see the globe view (requires WebGL).

§ Visibility from observer

Set your observer location to see the next 7 days of passes ≥ 10°. The values pass through the URL so the page stays shareable.

No JS? Fill the form by hand. The geolocation button needs JavaScript.